Regional Weather Roundup
Issued by NWS

Home | Current Version | Previous Version | Text Only | Print | Product List | Glossary Off
Versions: 1 2 3 4 5 6 7 8 9 10 11 12 13 14 15 16 17 18 19 20 21 22 23 24 25 26 27 28 29 30 31 32 33 34 35 36 37 38 39 40 41 42 43 44 45 46 47 48 49 50

000
ASUS43 KTOP 251759
RWRKS

WEATHER ROUNDUP FOR KANSAS
NATIONAL WEATHER SERVICE GOODLAND KS
100 PM CDT SAT APR 25 2015

NOTE:  "FAIR" INDICATES FEW OR NO CLOUDS BELOW 12,000 FEET WITH NO
SIGNIFICANT WEATHER AND/OR OBSTRUCTIONS TO VISIBILITY.

KSZ001>006-013>018-027>032-041>047-251900-
NORTHWEST KANSAS

CITY           SKY/WX    TMP DP  RH WIND       PRES   REMARKS
GOODLAND       SUNNY     66  45  46 N13       29.70F
6HR MIN TEMP:  44; 6HR MAX TEMP:  67;

HAYS           MOSUNNY   70  52  52 N12       29.65F
HILL CITY      MOSUNNY   68  52  56 VRB6      29.67S
6HR MIN TEMP:  51; 6HR MAX TEMP:  68;

RUSSELL        CLOUDY    65  54  67 N16G23    29.64R
6HR MIN TEMP:  52; 6HR MAX TEMP:  68;

$$

KSZ061>065-074>080-084>089-251900-
SOUTHWEST KANSAS

CITY           SKY/WX    TMP DP  RH WIND       PRES   REMARKS
DODGE CITY     SUNNY     73  43  33 NW10G18   29.68R
6HR MIN TEMP:  50; 6HR MAX TEMP:  74;

ELKHART          N/A     76  34  21 E5          N/A
GARDEN CITY    SUNNY     72  44  36 NW13      29.69S
6HR MIN TEMP:  47; 6HR MAX TEMP:  72;

GREAT BEND     SUNNY     70  54  56 N15       29.64S
LIBERAL        SUNNY     75  39  27 NW18      29.71F
$$

KSZ066>073-081>083-090>101-251900-
SOUTHEAST KANSAS

CITY           SKY/WX    TMP DP  RH WIND       PRES   REMARKS
CHANUTE        CLOUDY    69  54  58 NW21G28   29.56R
6HR MIN TEMP:  60; 6HR MAX TEMP:  72;

COFFEYVILLE    SUNNY     75  51  43 W20G30    29.56F
6HR MIN TEMP:  60; 6HR MAX TEMP:  76;

HUTCHINSON     MOSUNNY   72  53  51 N15G23    29.62R
6HR MIN TEMP:  55; 6HR MAX TEMP:  73;

MEDICINE LODGE   N/A     76  47  35 NW14G20   29.63S
NEWTON         PTSUNNY   66  54  63 NW16G25   29.64R
PARSONS        PTSUNNY   74  54  49 NW18G26   29.57F
6HR MIN TEMP:  60; 6HR MAX TEMP:  76;

WICHITA INTL   MOSUNNY   73  51  46 NW17      29.61S
6HR MIN TEMP:  56; 6HR MAX TEMP:  73;

WICHITA JABRA  SUNNY     73  53  49 NW20G25   29.60F
6HR MIN TEMP:  56; 6HR MAX TEMP:  73;

WINFIELD       SUNNY     76  54  46 NW14G22   29.62S
6HR MIN TEMP:  54; 6HR MAX TEMP:  76;

$$

KSZ007>012-019>026-033>040-048>060-102>105-251900-
NORTHEAST KANSAS

CITY           SKY/WX    TMP DP  RH WIND       PRES   REMARKS
CONCORDIA      CLOUDY    59  53  80 NW14G22   29.63S
6HR MIN TEMP:  55; 6HR MAX TEMP:  60; 6HR PCP:  0.02;

EMPORIA        CLOUDY    65  55  70 NW20G29   29.58R
6HR MIN TEMP:  53; 6HR MAX TEMP:  65;

LAWRENCE       LGT RAIN  62  58  86 N18G25    29.50R
6HR MIN TEMP:  55; 6HR MAX TEMP:  62; 6HR PCP:  0.02;

MANHATTAN      CLOUDY    61  55  81 VRB6G18   29.59R
6HR MIN TEMP:  56; 6HR MAX TEMP:  62; 6HR PCP: TRACE;

OLATHE IND     RAIN      59  57  93 W9        29.50R VSB 1
6HR MIN TEMP:  56; 6HR MAX TEMP:  62; 6HR PCP:  0.08;

OLATHE EXE     LGT RAIN  61  57  87 W9        29.49R
6HR MIN TEMP:  56; 6HR MAX TEMP:  61; 6HR PCP:  0.16;

SALINA         PTSUNNY   67  54  63 N18       29.63R
6HR MIN TEMP:  55; 6HR MAX TEMP:  67;

TOPEKA BILLARD PTSUNNY   65  57  75 N14       29.54R
6HR MIN TEMP:  56; 6HR MAX TEMP:  65; 6HR PCP: TRACE;

TOPEKA FORBES  LGT RAIN  65  57  75 N15       29.52R
6HR MIN TEMP:  58; 6HR MAX TEMP:  65; 6HR PCP:  0.01;

$$



USA.gov is the U.S. government's official web portal to all federal, state and local government web resources and services.